Location: S�deilles
(46.7500°N, 6.9329°E)
Time: 08:01:53
(UTC+00:00)

Cosmos 1844 Rocket - Pass Details

Date: 08 March 2021
Orbit: 826 x 843 km, 71.0° (Epoch: 14 April)

Event Time Altitude Azimuth Distance (km) Brightness Sun altitude
Rises 18:39:36 0° 326° (NW) 3,374 6.5 -13.0°
Reaches altitude 10° 18:42:13 10° 318° (NW) 2,436 5.9 -13.5°
Maximum altitude 18:47:12 35° 254° (WSW) 1,316 4.3 -14.3°
Drops below altitude 10° 18:52:10 10° 191° (S) 2,425 5.1 -15.1°
Sets 18:54:47 0° 182° (S) 3,355 5.7 -15.6°
